KC7MGR Weather Reports


time (UTC)temp
F
wind
direction
speed
knots
gust
knots
rain 1hr
in
rain 24hr
in
rain mn
in
humidity
%
barometer
mb
20260507092329 48 231 5.2 12.2 0.00 0.00 0.00 67 1015.3
20260507091848 48 239 3.5 14.8 0.00 0.00 0.00 67 1015.3
20260507091328 48 222 6.1 14.8 0.00 0.00 0.00 66 1015.2
20260507090829 48 189 5.2 12.2 0.00 0.00 0.00 66 1015.3
20260507090326 49 206 5.2 12.2 0.00 0.00 0.00 66 1015.1
20260507085823 49 196 7.0 11.3 0.00 0.00 0.00 65 1015.1
20260507085324 49 210 6.1 8.7 0.00 0.00 0.00 65 1015.2
20260507084841 49 191 5.2 8.7 0.00 0.00 0.00 65 1015.2
20260507084338 49 200 5.2 12.2 0.00 0.00 0.00 65 1015.2
20260507083836 49 209 7.0 12.2 0.00 0.00 0.00 64 1015.3
20260507083359 49 200 5.2 9.6 0.00 0.00 0.00 64 1015.3
20260507082839 50 216 5.2 12.2 0.00 0.00 0.00 63 1015.3
20260507082335 50 204 5.2 12.2 0.00 0.00 0.00 63 1015.3
20260507081836 50 224 3.5 13.0 0.00 0.00 0.00 63 1015.5
20260507081332 50 251 5.2 14.8 0.00 0.00 0.00 62 1015.5
20260507080831 50 223 6.1 10.4 0.00 0.00 0.00 62 1015.5
20260507080328 50 245 4.3 15.6 0.00 0.00 0.00 61 1015.5
20260507075825 51 223 7.8 15.6 0.00 0.00 0.00 61 1015.5
20260507075324 51 242 6.1 12.2 0.00 0.00 0.00 60 1015.5
20260507074841 51 269 6.1 12.2 0.00 0.00 0.00 60 1015.5
20260507074341 51 216 4.3 10.4 0.00 0.00 0.00 59 1015.5
20260507073841 52 223 6.1 10.4 0.00 0.00 0.00 58 1015.5
20260507073338 52 215 3.5 8.7 0.00 0.00 0.00 58 1015.5
20260507072838 52 226 4.3 8.7 0.00 0.00 0.00 57 1015.4
20260507072356 52 213 6.1 9.6 0.00 0.00 0.00 57 1015.3
20260507071858 52 214 5.2 12.2 0.00 0.00 0.00 57 1015.4
20260507071336 52 187 7.0 10.4 0.00 0.00 0.00 57 1015.3
20260507070835 52 220 6.1 11.3 0.00 0.00 0.00 57 1015.3
20260507070352 52 200 7.0 11.3 0.00 0.00 0.00 57 1015.3
20260507065830 52 202 6.1 10.4 0.00 0.00 0.00 57 1015.4
20260507065327 52 202 7.0 9.6 0.00 0.00 0.00 57 1015.4
20260507064824 52 231 4.3 10.4 0.00 0.00 0.00 57 1015.5
20260507064341 52 215 5.2 10.4 0.00 0.00 0.00 57 1015.5
20260507063838 52 212 5.2 7.8 0.00 0.00 0.00 57 1015.5
20260507063403 52 202 4.3 7.8 0.00 0.00 0.00 58 1015.5
20260507062839 52 200 4.3 8.7 0.00 0.00 0.00 58 1015.5
20260507062400 52 213 5.2 8.7 0.00 0.00 0.00 58 1015.5
20260507061835 52 223 5.2 10.4 0.00 0.00 0.00 58 1015.5
20260507061353 52 224 4.3 10.4 0.00 0.00 0.00 58 1015.5
20260507060834 52 204 7.0 10.4 0.00 0.00 0.00 58 1015.5
20260507060335 52 187 6.1 10.4 0.00 0.00 0.00 58 1015.6
20260507055836 53 212 5.2 10.4 0.00 0.00 0.00 58 1015.6
20260507055333 53 216 4.3 10.4 0.00 0.00 0.00 58 1015.6
20260507054834 53 202 4.3 13.9 0.00 0.00 0.00 58 1015.6
20260507054336 53 188 7.8 13.9 0.00 0.00 0.00 58 1015.7
20260507053833 53 215 6.1 10.4 0.00 0.00 0.00 58 1015.7
20260507053333 53 215 4.3 10.4 0.00 0.00 0.00 59 1015.7
20260507052859 53 202 5.2 9.6 0.00 0.00 0.00 59 1015.7
20260507052334 53 228 6.1 10.4 0.00 0.00 0.00 59 1015.7
20260507051832 53 225 4.3 11.3 0.00 0.00 0.00 59 1015.8
20260507051332 53 226 4.3 8.7 0.00 0.00 0.00 59 1015.7
20260507050830 53 214 5.2 12.2 0.00 0.00 0.00 59 1015.7
20260507050346 53 214 6.1 12.2 0.00 0.00 0.00 58 1015.7
20260507045842 54 229 4.3 10.4 0.00 0.00 0.00 58 1015.8
20260507045339 54 183 4.3 8.7 0.00 0.00 0.00 57 1015.8
20260507044836 54 235 3.5 9.6 0.00 0.00 0.00 56 1015.8
20260507044337 54 241 5.2 9.6 0.00 0.00 0.00 55 1015.9
20260507043858 54 233 3.5 10.4 0.00 0.00 0.00 55 1016.0
20260507043335 54 216 4.3 8.7 0.00 0.00 0.00 55 1016.0
20260507042858 54 232 4.3 9.6 0.00 0.00 0.00 55 1016.0
20260507042359 54 215 6.1 11.3 0.00 0.00 0.00 54 1016.0
20260507041836 54 208 4.3 12.2 0.00 0.00 0.00 55 1016.0
20260507041357 54 241 5.2 9.6 0.00 0.00 0.00 56 1016.0
20260507040857 54 245 3.5 9.6 0.00 0.00 0.00 57 1016.0
20260507040401 54 282 3.5 9.6 0.00 0.00 0.00 57 1016.0
20260507035903 54 240 3.5 7.8 0.00 0.00 0.00 56 1016.0
20260507035338 54 252 3.5 7.8 0.00 0.00 0.00 57 1016.0
20260507034837 54 254 3.5 7.8 0.00 0.00 0.00 58 1016.0
20260507034338 54 273 4.3 8.7 0.00 0.00 0.00 59 1016.0
20260507033836 54 252 4.3 7.8 0.00 0.00 0.00 59 1015.9
20260507033333 54 262 3.5 11.3 0.00 0.00 0.00 60 1015.9
20260507032830 54 274 4.3 11.3 0.00 0.00 0.00 60 1015.9
20260507032347 54 228 3.5 11.3 0.00 0.00 0.00 62 1016.0
20260507031843 54 274 2.6 11.3 0.00 0.00 0.00 62 1015.9
20260507031322 54 253 3.5 8.7 0.00 0.00 0.00 64 1015.9
20260507030824 54 281 2.6 7.0 0.00 0.00 0.00 66 1015.9
20260507030342 54 299 0.0 6.1 0.00 0.00 0.00 69 1015.9
20260507025830 54 239 0.9 6.1 0.00 0.00 0.00 68 1015.8
20260507025327 54 271 1.7 3.5 0.00 0.00 0.00 68 1015.8
20260507024824 54 246 0.9 2.6 0.00 0.00 0.00 68 1015.8
20260507024323 54 287 0.0 7.8 0.00 0.00 0.00 70 1015.8
20260507023825 54 301 4.3 7.8 0.00 0.00 0.00 66 1015.8
20260507023342 54 289 0.0 0.0 0.00 0.00 0.00 72 1015.9
20260507022841 54 289 0.0 0.0 0.00 0.00 0.00 72 1015.8
20260507022341 54 289 0.0 0.0 0.00 0.00 0.00 73 1015.9
20260507021839 54 289 0.0 2.6 0.00 0.00 0.00 72 1016.0
20260507021337 55 289 0.0 4.3 0.00 0.00 0.00 71 1015.9
20260507020838 54 279 0.9 4.3 0.00 0.00 0.00 69 1015.8
20260507020335 55 231 1.7 4.3 0.00 0.00 0.00 72 1015.8
20260507015849 55 341 0.0 0.0 0.00 0.00 0.00 72 1015.7
20260507015324 55 341 0.0 0.0 0.00 0.00 0.00 72 1015.7
20260507014845 55 341 0.0 0.0 0.00 0.00 0.00 71 1015.6
20260507014324 55 341 0.0 0.0 0.00 0.00 0.00 71 1015.6
20260507013823 55 341 0.0 0.0 0.00 0.00 0.00 71 1015.7
20260507013340 55 341 0.0 0.0 0.00 0.00 0.00 71 1015.7
20260507012839 55 341 0.0 0.0 0.00 0.00 0.00 70 1015.7
20260507012339 55 342 0.0 0.0 0.00 0.00 0.00 70 1015.7
20260507011839 56 342 0.0 0.0 0.00 0.00 0.00 69 1015.8
20260507011339 56 342 0.0 0.0 0.00 0.00 0.00 69 1015.8
20260507010836 55 342 0.0 0.0 0.00 0.00 0.00 69 1015.7
20260507010334 55 350 0.0 0.0 0.00 0.00 0.00 70 1015.8
20260507005835 56 350 0.0 0.0 0.00 0.00 0.00 69 1015.6
20260507005336 55 350 0.0 0.0 0.00 0.00 0.00 69 1015.7
20260507004839 56 350 0.0 0.0 0.00 0.00 0.00 69 1015.8
20260507004356 56 350 0.0 0.0 0.00 0.00 0.00 67 1015.8
20260507003835 56 345 0.0 0.0 0.00 0.00 0.00 68 1015.8
20260507003332 56 345 0.0 0.0 0.00 0.00 0.00 68 1015.9
20260507002830 56 345 0.0 0.0 0.00 0.00 0.00 68 1015.8
20260507002327 56 350 0.0 0.0 0.00 0.00 0.00 67 1015.8
20260507001824 56 340 0.0 0.0 0.00 0.00 0.00 67 1015.8
20260507001323 56 341 0.0 0.0 0.00 0.00 0.00 67 1015.8
20260507000823 56 342 0.0 0.0 0.00 0.00 0.00 66 1015.7
20260507000343 57 355 0.0 0.0 0.00 0.00 0.00 68 1015.7
20260506235842 57 355 0.0 0.0 0.00 0.00 0.00 67 1015.6
20260506235342 57 326 0.0 0.0 0.00 0.00 0.00 69 1015.5
20260506234904 56 360 0.0 0.0 0.00 0.00 0.00 68 1015.6
20260506234339 57 329 0.0 0.0 0.00 0.00 0.00 68 1015.6
20260506233838 57 329 0.0 0.0 0.00 0.00 0.00 69 1015.6
20260506233341 57 339 0.0 0.0 0.00 0.00 0.00 69 1015.8
20260506232840 57 350 0.0 0.0 0.00 0.00 0.00 68 1015.8
20260506232336 56 335 0.0 0.0 0.00 0.00 0.00 70 1015.8
20260506231837 56 339 0.0 0.0 0.00 0.00 0.00 69 1015.8
20260506231358 57 360 0.0 0.9 0.00 0.00 0.00 69 1015.8
20260506230836 57 343 0.0 0.9 0.00 0.00 0.00 67 1016.0
20260506230333 58 331 0.0 0.0 0.00 0.00 0.00 65 1015.8
20260506225851 58 332 0.0 2.6 0.00 0.00 0.00 65 1016.1
20260506225328 59 281 0.9 2.6 0.00 0.00 0.00 62 1016.1
20260506224849 61 338 0.0 3.5 0.00 0.00 0.00 58 1016.1
20260506224328 62 350 0.0 3.5 0.00 0.00 0.00 52 1016.3
20260506223825 62 96 0.0 1.7 0.00 0.00 0.00 49 1016.2
20260506223338 62 262 0.0 7.0 0.00 0.00 0.00 49 1016.4
20260506222857 62 350 0.9 9.6 0.00 0.00 0.00 46 1016.3
20260506222402 62 254 0.9 9.6 0.00 0.00 0.00 44 1016.2
20260506221904 62 251 0.9 11.3 0.00 0.00 0.00 48 1016.3
20260506221340 62 180 0.9 11.3 0.00 0.00 0.00 47 1016.3
20260506220841 61 281 2.6 11.3 0.00 0.00 0.00 48 1016.3
20260506220338 62 256 2.6 10.4 0.00 0.00 0.00 48 1016.4
20260506215834 62 223 6.1 12.2 0.00 0.00 0.00 46 1016.4
20260506215331 62 233 5.2 10.4 0.00 0.00 0.00 48 1016.5
20260506214827 62 252 5.2 11.3 0.00 0.00 0.00 48 1016.5
20260506214326 63 204 4.3 11.3 0.00 0.00 0.00 47 1016.4
20260506213826 63 227 5.2 14.8 0.00 0.00 0.00 48 1016.4
20260506213324 62 278 6.1 14.8 0.00 0.00 0.00 48 1016.5
20260506212841 62 220 5.2 13.9 0.00 0.00 0.00 49 1016.4
20260506212402 62 206 7.0 13.9 0.00 0.00 0.00 50 1016.6
20260506211838 62 183 2.6 11.3 0.00 0.00 0.00 51 1016.7
20260506211355 63 270 4.3 17.4 0.00 0.00 0.00 50 1016.8
20260506210835 63 235 5.2 17.4 0.00 0.00 0.00 50 1016.8
20260506210336 63 288 4.3 12.2 0.00 0.00 0.00 52 1017.0
20260506205832 62 222 2.6 16.5 0.00 0.00 0.00 54 1017.0
20260506205331 62 178 7.8 16.5 0.00 0.00 0.00 52 1017.0
20260506204829 62 240 5.2 11.3 0.00 0.00 0.00 53 1017.1
20260506204329 61 265 6.1 13.0 0.00 0.00 0.00 53 1017.0
20260506203848 61 191 4.3 11.3 0.00 0.00 0.00 54 1017.0
20260506203324 61 266 7.0 11.3 0.00 0.00 0.00 52 1016.8
20260506202842 61 185 4.3 8.7 0.00 0.00 0.00 53 1016.9
20260506202341 61 237 2.6 13.9 0.00 0.00 0.00 54 1017.0
20260506201904 61 199 7.0 13.9 0.00 0.00 0.00 51 1017.0
20260506201342 61 100 1.7 10.4 0.00 0.00 0.00 54 1017.0
20260506200839 60 266 5.2 12.2 0.00 0.00 0.00 54 1017.0
20260506200337 61 240 6.1 10.4 0.00 0.00 0.00 53 1017.1
20260506195837 61 273 5.2 9.6 0.00 0.00 0.00 54 1017.2
20260506195340 60 283 2.6 13.0 0.00 0.00 0.00 54 1017.2
20260506194837 60 243 7.8 13.0 0.00 0.00 0.00 53 1017.2
20260506194352 59 242 7.0 13.9 0.00 0.00 0.00 53 1017.2
20260506193832 60 195 4.3 10.4 0.00 0.00 0.00 53 1017.1
20260506193330 60 174 0.9 9.6 0.00 0.00 0.00 53 1017.2
20260506192832 60 209 4.3 13.0 0.00 0.00 0.00 53 1017.3
20260506192333 60 271 7.0 13.0 0.00 0.00 0.00 53 1017.3
20260506191834 60 224 3.5 10.4 0.00 0.00 0.00 53 1017.3
20260506191334 59 229 5.2 12.2 0.00 0.00 0.00 53 1017.4
20260506190834 59 267 6.1 12.2 0.00 0.00 0.00 53 1017.4
20260506190355 59 216 3.5 9.6 0.00 0.00 0.00 53 1017.5
20260506185836 59 241 3.5 12.2 0.00 0.00 0.00 54 1017.5
20260506185336 59 272 7.0 12.2 0.00 0.00 0.00 52 1017.5
20260506184834 59 201 7.0 11.3 0.00 0.00 0.00 52 1017.4
20260506184331 59 229 3.5 11.3 0.00 0.00 0.00 53 1017.4
20260506183829 59 271 4.3 11.3 0.00 0.00 0.00 52 1017.6
20260506183327 59 224 4.3 8.7 0.00 0.00 0.00 52 1017.5
20260506182828 59 170 2.6 7.8 0.00 0.00 0.00 53 1017.6
20260506182328 59 216 3.5 7.8 0.00 0.00 0.00 51 1017.6
20260506181829 58 266 3.5 6.1 0.00 0.00 0.00 52 1017.5
20260506181328 58 260 2.6 13.0 0.00 0.00 0.00 53 1017.5
20260506180825 57 237 6.1 13.0 0.00 0.00 0.00 53 1017.4
20260506180342 57 237 3.5 12.2 0.00 0.00 0.00 53 1017.4
20260506175840 57 231 3.5 13.0 0.00 0.00 0.00 54 1017.4
20260506175341 56 235 3.5 13.0 0.00 0.00 0.00 54 1017.3
20260506174838 56 190 7.8 11.3 0.00 0.00 0.00 52 1017.3
20260506174400 56 199 4.3 12.2 0.00 0.00 0.00 52 1017.4
20260506173902 56 239 5.2 13.0 0.00 0.00 0.00 53 1017.4
20260506173403 56 234 7.8 13.0 0.00 0.00 0.00 51 1017.2
20260506172840 56 212 7.0 13.0 0.00 0.00 0.00 50 1017.2
20260506172339 56 214 5.2 13.0 0.00 0.00 0.00 53 1017.1
20260506171855 56 212 3.5 10.4 0.00 0.00 0.00 54 1017.1
20260506171331 55 232 3.5 13.0 0.00 0.00 0.00 54 1017.1